User: anonymous   Login
Location: Vancouver
(49.2500°N, 123.1330°W)
Time: 09:01:49
(UTC-07:00)
Language:

Oscar 11 - Orbit

View from above orbital plane
View from above orbital plane
View from above satellite
View from above satellite

Ground track
Ground track

The orbit data is extracted from the following two-line orbital elements,

1 14781U 84021B   16208.17410876  .00000103  00000-0  19137-4 0  9996
2 14781  97.7461 258.9784 0008538 177.2321 182.8941 14.82769526742036
Epoch (UTC): 26 July 2016 04:10:42
Eccentricity: 0.0008538
inclination: 97.7461°
perigee height: 614 km
apogee height: 626 km
right ascension of ascending node: 258.9784°
argument of perigee: 177.2321°
revolutions per day: 14.82769526
mean anomaly at epoch: 182.8941°
orbit number at epoch: 74203

The dashed part of the orbit path shows where the satellite is in the earth's shadow,  

DLR